AAL1341 KSFO-KPRC

Flight info

Callsign AAL1341
Flight time N/A
Altitude 35000
Route WESLA5 KAYEX LOSHN PMD J6 DRK
Aircraft B738/M-SDE2E3FGHIRWXY/LB1

Departure

Time 2026-05-04 20:12
Airport San Francisco International Airport (KSFO)

Arrival

Time N/A
Airport Prescott Regional Airport - Ernest A. Love Field (KPRC)
Time Latitude Longitude Altitude Speed Heading
2026-05-04 20:04 37.61975 -122.38388 32 ft 0 kts 208°
2026-05-04 20:08 37.61979 -122.38386 32 ft 3 kts 207°
2026-05-04 20:08 37.62038 -122.38350 32 ft 11 kts 176°
2026-05-04 20:08 37.62060 -122.38409 32 ft 5 kts 115°
2026-05-04 20:08 37.62009 -122.38304 32 ft 31 kts 123°
2026-05-04 20:09 37.61887 -122.38030 32 ft 35 kts 117°
2026-05-04 20:09 37.61792 -122.37766 28 ft 31 kts 115°
2026-05-04 20:09 37.61713 -122.37517 20 ft 30 kts 114°
2026-05-04 20:09 37.61615 -122.37288 15 ft 28 kts 115°
2026-05-04 20:10 37.61545 -122.37092 12 ft 23 kts 119°
2026-05-04 20:10 37.61467 -122.36927 13 ft 20 kts 122°
2026-05-04 20:10 37.61376 -122.36794 13 ft 18 kts 123°
2026-05-04 20:10 37.61295 -122.36605 12 ft 33 kts 116°
2026-05-04 20:11 37.61167 -122.36308 9 ft 37 kts 123°
2026-05-04 20:11 37.61053 -122.36030 9 ft 33 kts 102°
2026-05-04 20:11 37.61184 -122.35910 9 ft 24 kts 321°
2026-05-04 20:11 37.61325 -122.36221 10 ft 73 kts 298°
2026-05-04 20:12 37.61686 -122.37067 14 ft 144 kts 297°
2026-05-04 20:12 37.62220 -122.38358 339 ft 177 kts 298°
2026-05-04 20:12 37.62859 -122.39698 1188 ft 184 kts 300°
2026-05-04 20:12 37.63506 -122.41175 1654 ft 205 kts 295°
2026-05-04 20:13 37.64162 -122.42802 2306 ft 217 kts 298°
2026-05-04 20:13 37.64918 -122.44524 2855 ft 233 kts 298°
2026-05-04 20:13 37.65715 -122.46340 3520 ft 245 kts 298°
2026-05-04 20:13 37.66544 -122.48254 4374 ft 251 kts 299°
2026-05-04 20:14 37.67178 -122.50320 4956 ft 268 kts 277°
2026-05-04 20:14 37.66999 -122.52681 5723 ft 276 kts 256°
2026-05-04 20:14 37.66441 -122.55031 6461 ft 284 kts 245°
2026-05-04 20:14 37.65280 -122.57028 7225 ft 288 kts 216°
2026-05-04 20:15 37.63527 -122.58164 8109 ft 286 kts 199°
2026-05-04 20:15 37.61629 -122.58846 8880 ft 289 kts 184°
2026-05-04 20:15 37.59661 -122.58560 9602 ft 288 kts 155°
2026-05-04 20:15 37.57984 -122.57232 10419 ft 287 kts 140°
2026-05-04 20:16 37.56394 -122.55581 10760 ft 306 kts 137°
2026-05-04 20:16 37.54738 -122.53773 11033 ft 326 kts 137°
2026-05-04 20:16 37.52962 -122.51835 11257 ft 347 kts 137°
2026-05-04 20:16 37.51100 -122.49797 11404 ft 367 kts 137°
2026-05-04 20:17 37.49147 -122.47572 11519 ft 386 kts 133°
2026-05-04 20:17 37.47377 -122.44993 11911 ft 396 kts 127°
2026-05-04 20:17 37.45659 -122.42261 12501 ft 400 kts 127°
2026-05-04 20:17 37.43896 -122.39523 13198 ft 402 kts 128°
2026-05-04 20:18 37.42138 -122.36831 13874 ft 403 kts 128°
2026-05-04 20:18 37.40356 -122.34084 14524 ft 405 kts 127°
2026-05-04 20:18 37.38565 -122.31300 15144 ft 408 kts 127°
2026-05-04 20:18 37.36791 -122.28539 15744 ft 411 kts 127°
2026-05-04 20:19 37.34994 -122.25751 16315 ft 414 kts 127°
2026-05-04 20:19 37.33170 -122.22924 16830 ft 418 kts 127°
2026-05-04 20:19 37.31348 -122.20103 17375 ft 421 kts 127°
2026-05-04 20:19 37.29488 -122.17234 17960 ft 423 kts 127°
2026-05-04 20:20 37.27623 -122.14371 18515 ft 425 kts 127°
2026-05-04 20:20 37.25763 -122.11523 19044 ft 427 kts 127°
2026-05-04 20:20 37.23876 -122.08634 19531 ft 430 kts 126°
2026-05-04 20:20 37.21958 -122.05688 20078 ft 431 kts 126°
2026-05-04 20:21 37.20075 -122.02779 20573 ft 433 kts 126°
2026-05-04 20:21 37.18188 -121.99850 20991 ft 437 kts 125°
2026-05-04 20:21 37.14317 -121.93876 21927 ft 441 kts 125°
2026-05-04 20:22 37.12382 -121.90926 22328 ft 445 kts 126°
2026-05-04 20:22 37.10413 -121.87933 22766 ft 447 kts 126°
2026-05-04 20:22 37.08421 -121.84904 23321 ft 446 kts 125°
2026-05-04 20:22 37.06457 -121.81905 23714 ft 449 kts 125°
2026-05-04 20:23 37.04471 -121.78861 23992 ft 454 kts 125°
2026-05-04 20:23 37.02484 -121.75806 24231 ft 459 kts 125°
2026-05-04 20:23 37.00458 -121.72693 24588 ft 462 kts 126°
2026-05-04 20:23 36.98407 -121.69559 24895 ft 465 kts 126°
2026-05-04 20:24 36.96343 -121.66435 25239 ft 467 kts 126°
2026-05-04 20:24 36.94281 -121.63335 25556 ft 470 kts 127°
2026-05-04 20:24 36.92195 -121.60188 25917 ft 471 kts 127°
2026-05-04 20:24 36.90123 -121.57040 26379 ft 469 kts 127°
2026-05-04 20:25 36.88066 -121.53894 26827 ft 467 kts 128°
2026-05-04 20:25 36.86005 -121.50744 27198 ft 468 kts 128°
2026-05-04 20:25 36.83966 -121.47631 27638 ft 466 kts 129°
2026-05-04 20:25 36.81908 -121.44509 28007 ft 466 kts 129°
2026-05-04 20:26 36.79840 -121.41396 28390 ft 466 kts 130°
2026-05-04 20:26 36.77772 -121.38306 28712 ft 467 kts 130°
2026-05-04 20:26 36.75674 -121.35172 29027 ft 468 kts 131°
2026-05-04 20:26 36.73592 -121.32062 29297 ft 470 kts 132°
2026-05-04 20:27 36.71493 -121.28925 29620 ft 470 kts 132°
2026-05-04 20:27 36.69405 -121.25798 29906 ft 471 kts 132°
2026-05-04 20:27 36.67322 -121.22675 30114 ft 473 kts 133°
2026-05-04 20:27 36.65208 -121.19504 30347 ft 475 kts 133°
2026-05-04 20:28 36.63094 -121.16339 30588 ft 476 kts 133°
2026-05-04 20:28 36.60994 -121.13203 30814 ft 478 kts 133°
2026-05-04 20:28 36.58852 -121.09999 31121 ft 477 kts 133°
2026-05-04 20:28 36.56744 -121.06833 31376 ft 478 kts 134°
2026-05-04 20:29 36.54650 -121.03674 31658 ft 477 kts 134°
2026-05-04 20:29 36.52545 -121.00495 31956 ft 477 kts 134°
2026-05-04 20:29 36.50437 -120.97330 32187 ft 477 kts 135°
2026-05-04 20:29 36.48298 -120.94151 32480 ft 476 kts 135°
2026-05-04 20:30 36.46191 -120.91021 32786 ft 474 kts 136°
2026-05-04 20:30 36.44071 -120.87859 33046 ft 474 kts 136°
2026-05-04 20:30 36.41962 -120.84706 33237 ft 476 kts 136°
2026-05-04 20:30 36.39868 -120.81570 33585 ft 474 kts 136°
2026-05-04 20:31 36.37771 -120.78429 33851 ft 474 kts 136°
2026-05-04 20:31 36.35679 -120.75296 34261 ft 470 kts 137°
2026-05-04 20:31 36.33613 -120.72199 34530 ft 470 kts 136°
2026-05-04 20:31 36.31542 -120.69087 34861 ft 468 kts 137°
2026-05-04 20:32 36.29464 -120.65977 34987 ft 470 kts 137°
2026-05-04 20:32 36.27372 -120.62872 34999 ft 475 kts 137°
2026-05-04 20:32 36.23108 -120.56598 34998 ft 476 kts 137°
2026-05-04 20:33 36.18874 -120.50309 34996 ft 472 kts 137°
2026-05-04 20:33 36.14691 -120.44061 34998 ft 472 kts 137°
2026-05-04 20:34 36.10467 -120.37845 35001 ft 473 kts 138°
2026-05-04 20:34 36.06240 -120.31654 35005 ft 470 kts 139°
2026-05-04 20:35 36.02026 -120.25436 35004 ft 472 kts 139°
2026-05-04 20:35 35.97848 -120.19247 35004 ft 472 kts 139°
2026-05-04 20:36 35.93643 -120.13032 35006 ft 471 kts 139°
2026-05-04 20:36 35.89394 -120.06816 35010 ft 474 kts 139°
2026-05-04 20:37 35.85158 -120.00679 35008 ft 472 kts 139°
2026-05-04 20:37 35.81054 -119.94256 35005 ft 478 kts 135°
2026-05-04 20:38 35.77156 -119.87669 35003 ft 475 kts 135°
2026-05-04 20:38 35.73181 -119.81227 35003 ft 476 kts 136°
2026-05-04 20:39 35.69183 -119.74741 34996 ft 477 kts 136°
2026-05-04 20:39 35.65218 -119.68228 35004 ft 476 kts 136°
2026-05-04 20:40 35.61226 -119.61746 34999 ft 477 kts 136°
2026-05-04 20:40 35.57193 -119.55287 34990 ft 477 kts 137°
2026-05-04 20:41 35.55288 -119.51941 34989 ft 490 kts 129°
2026-05-04 20:41 35.53907 -119.48018 34987 ft 508 kts 112°
2026-05-04 20:41 35.53283 -119.43725 35004 ft 520 kts 104°
2026-05-04 20:41 35.52925 -119.39342 35001 ft 518 kts 104°
2026-05-04 20:42 35.51975 -119.30627 34998 ft 512 kts 108°
2026-05-04 20:42 35.50782 -119.22003 35001 ft 513 kts 108°
2026-05-04 20:43 35.49637 -119.13380 35013 ft 516 kts 108°
2026-05-04 20:43 35.48513 -119.04720 35011 ft 519 kts 108°
2026-05-04 20:44 35.47286 -118.96021 35008 ft 516 kts 110°
2026-05-04 20:44 35.46024 -118.87373 34993 ft 518 kts 110°
2026-05-04 20:45 35.44802 -118.78737 34988 ft 518 kts 109°
2026-05-04 20:45 35.43601 -118.70049 34968 ft 518 kts 110°
2026-05-04 20:46 35.42388 -118.61279 34959 ft 524 kts 110°
2026-05-04 20:46 35.41166 -118.52463 34958 ft 530 kts 110°
2026-05-04 20:47 35.39936 -118.43640 34969 ft 525 kts 110°
2026-05-04 20:47 35.38690 -118.34757 34970 ft 525 kts 111°
2026-05-04 20:48 35.37413 -118.25861 34951 ft 526 kts 112°
2026-05-04 20:48 35.36156 -118.17174 34962 ft 519 kts 112°
2026-05-04 20:49 35.34868 -118.08392 34955 ft 525 kts 113°
2026-05-04 20:49 35.33579 -117.99492 34949 ft 530 kts 113°
2026-05-04 20:50 35.32299 -117.90606 34924 ft 531 kts 112°
2026-05-04 20:50 35.30998 -117.81686 34943 ft 532 kts 112°
2026-05-04 20:51 35.29652 -117.72820 34930 ft 528 kts 113°
2026-05-04 20:51 35.28277 -117.63817 34928 ft 523 kts 114°
2026-05-04 20:52 35.26923 -117.55033 34931 ft 527 kts 113°
2026-05-04 20:52 35.25596 -117.46212 34929 ft 531 kts 112°
2026-05-04 20:53 35.24295 -117.37191 34932 ft 533 kts 112°
2026-05-04 20:53 35.22965 -117.28212 34924 ft 521 kts 114°
2026-05-04 20:54 35.21617 -117.19559 34929 ft 524 kts 114°
2026-05-04 20:54 35.20193 -117.10768 34939 ft 529 kts 114°
2026-05-04 20:55 35.18826 -117.01981 34924 ft 526 kts 114°
2026-05-04 20:55 35.17493 -116.93148 34930 ft 526 kts 114°
2026-05-04 20:56 35.16086 -116.84221 34929 ft 533 kts 114°
2026-05-04 20:56 35.14671 -116.75401 34936 ft 532 kts 114°
2026-05-04 20:57 35.13312 -116.66522 34916 ft 528 kts 114°
2026-05-04 20:57 35.11982 -116.57606 34918 ft 526 kts 114°
2026-05-04 20:58 35.10605 -116.48795 34906 ft 528 kts 114°
2026-05-04 20:58 35.09178 -116.39964 34896 ft 532 kts 114°
2026-05-04 20:59 35.07695 -116.30950 34900 ft 539 kts 114°